Regional Weather Roundup
Issued by NWS

Home | Current Version | Previous Version | Graphics & Text | Print | Product List | Glossary On
Versions: 1 2 3 4 5 6 7 8 9 10 11 12 13 14 15 16 17 18 19 20 21 22 23 24 25 26 27 28 29 30 31 32 33 34 35 36 37 38 39 40 41 42 43 44 45 46 47 48 49 50
000
ASUS45 KABQ 230501
RWRNM
WEATHER ROUNDUP FOR NEW MEXICO
NATIONAL WEATHER SERVICE ALBUQUERQUE NM
1100 PM MDT MON SEP 22 2014

NOTE: "FAIR" MEANS FEW OR NO CLOUDS BELOW 12,000 FEET AGL WITH NO
       SIGNIFICANT WEATHER OR OBSTRUCTIONS TO VISION.

      THIS PRODUCT IS RELEASED AS TWO VERSIONS.  ONE VERSION NEAR
      THE TOP OF THE HOUR CONTAINING PRELIMINARY DATA FROM ALBUQUERQUE
      AND OTHER STATIONS.  A FINAL VERSION WITH ADDITIONAL DATA IS
      ISSUED ABOUT 10 MINUTES AFTER THE HOUR.

NMZ501-503-504-510>518-230600-
NORTHWEST PLATEAU/NORTHCENTRAL MOUNTAINS

CITY           SKY/WX    TMP DP  RH WIND       PRES   REMARKS
FARMINGTON     CLEAR     61  46  57 NE7       30.20R
LOS ALAMOS     PTCLDY    59  58  97 S8        30.37F
SANTA FE       MOCLDY    62  57  83 S9        30.32S
TAOS           PTCLDY    55  48  76 NW7       30.36R
ANGEL FIRE     MOCLDY    52  47  84 S5        30.42S

$$
NMZ402-403-502-505>509-230600-
WESTCENTRAL MOUNTAINS/SOUTHWEST MOUNTAINS

CITY           SKY/WX    TMP DP  RH WIND       PRES   REMARKS
GALLUP         MOCLDY    62  54  74 CALM      30.28R
GRANTS         CLOUDY    59  57  94 S10       30.33F
SILVER CITY    PTCLDY    64  63  94 E5        30.30S

$$
NMZ407-409-411-412-230600-
SOUTHERN DESERTS

CITY           SKY/WX    TMP DP  RH WIND       PRES   REMARKS
LORDSBURG      FAIR      68  63  83 MISG      30.19S
DEMING         CLOUDY    68  66  93 E7        30.21S
LAS CRUCES     CLOUDY    66  64  94 SE6       30.25S
T OR C         CLOUDY    68  63  84 SE7       30.25R

$$
NMZ519>523-230600-
CENTRAL VALLEYS/CENTRAL HIGHLANDS

CITY           SKY/WX    TMP DP  RH WIND       PRES   REMARKS
ALBUQUERQUE    CLOUDY    66  61  84 S7        30.27R
DOUBLE EAGLE   MOCLDY    60  59  94 CALM      30.30R
CLINES CORNERS CLOUDY    57  55  93 S7        30.36F
BELEN          CLOUDY    64  62  93 S8        30.25S
SOCORRO        MOCLDY    61  59  92 SW12      30.26S

$$
NMZ524>526-539-540-230600-
SOUTHCENTRAL MOUNTAINS

CITY           SKY/WX    TMP DP  RH WIND       PRES   REMARKS
RUIDOSO        NOT AVBL

$$
NMZ527>531-230600-
NORTHEAST HIGHLANDS/NORTHEAST PLAINS

CITY           SKY/WX    TMP DP  RH WIND       PRES   REMARKS
LAS VEGAS      CLOUDY    58  57  97 S17       30.35F
RATON          CLOUDY    59  58  96 S14       30.27F
CLAYTON        PTCLDY    62  58  86 SW20      30.22S

$$
NMZ532>537-230600-
EASTCENTRAL PLAINS

CITY           SKY/WX    TMP DP  RH WIND       PRES   REMARKS
TUCUMCARI      MOCLDY    65  61  87 SW7       30.22R
CANNON AFB     NOT AVBL
CLOVIS AIRPORT   N/A     63  61  94 S6        30.29S

$$
NMZ028-029-538-230600-
SOUTHEAST PLAINS

CITY           SKY/WX    TMP DP  RH WIND       PRES   REMARKS
ROSWELL        CLOUDY    67  65  93 SW3       30.23R
CARLSBAD       CLOUDY    68  32  26 CALM      30.20S
HOBBS          CLOUDY    66  66 100 E8        30.25S


$$



USA.gov is the U.S. government's official web portal to all federal, state and local government web resources and services.